Hourly Data Report for October 13, 2015

All times are specified in Local Standard Time (LST). Add 1 hour to adjust for Daylight Saving Time where and when it is observed.

IQALUIT CLIMATE
NUNAVUT

63°44'50.000" N
68°32'40.000" W
33.50 m
2402592
71321
XFB

Download Data

Hourly Data (October 2015)
Hourly Data Report for October 13, 2015
Temp Definition
°C
Dew Point Temp Definition
°C
Rel Hum Definition
%
Wind Dir Definition
10's deg

Wind Spd Definition
km/h
Visibility Definition
km
Stn Press Definition
kPa
Hmdx Definition


Wind Chill Definition


Weather Definition


TIME
00:00 -1.2 -2.5 91 30 5   99.80   -3 LegendNANA
01:00 -0.8 -3.5 82 29 11   99.82   -5 LegendNANA
02:00 -1.5 -3.7 85 31 5   99.79   -3 LegendNANA
03:00 -1.7 -4.5 81 29 5   99.80   -4 LegendNANA
04:00 -2.2 -4.0 88 33 3   99.82   -3 LegendNANA
05:00 -2.8 -3.7 94 4 3   99.79   -4 LegendNANA
06:00 -3.5 -4.2 95 6 3   99.77   -5 LegendNANA
07:00 -3.7 -4.7 93 7 4   99.76   -5 LegendNANA
08:00 -2.6 -4.0 90 14 5   99.76   -5 LegendNANA
09:00 -1.5 -3.7 85 14 10   99.72   -5 LegendNANA
10:00 -1.6 -3.4 87 14 12   99.74   -6 LegendNANA
11:00 -1.1 -3.1 86 15 12   99.67   -5 LegendNANA
12:00 -1.1 -3.3 85 17 7   99.67   -4 LegendNANA
13:00 -1.3 -2.9 89 17 7   99.65   -4 LegendNANA
14:00 -1.6 -2.9 91 16 7   99.66   -4 LegendNANA
15:00 -1.6 -2.8 92 12 6   99.63   -4 LegendNANA
16:00 -1.8 -3.9 86 13 9   99.61   -5 LegendNANA
17:00 -2.1 -3.9 88 10 4   99.60   -4 LegendNANA
18:00 -2.5 -4.1 89 12 7   99.58   -5 LegendNANA
19:00 -3.4 -4.6 91 2 7   99.57   -6 LegendNANA
20:00 -2.6 -3.7 92 35 4   99.56   -4 LegendNANA
21:00 -2.7 -3.6 94 4 2   99.55   -3 LegendNANA
22:00 -3.4 -4.1 95 21 3   99.51   -5 LegendNANA
23:00 -3.4 -4.0 95 33 6   99.51   -6 LegendNANA

Notes on Data Quality.

Legend

  • E = Estimated
  • M = Missing
  • NA = Not Available
  • ‡ = Partner data that is not subject to review by the National Climate Archives
Date modified: